GFSNIL_prec_snow_147.txt.gz
Snowfall_Accumulation
0.0 0.0 0.0 0.0 0.0 0.0 0.0 0.0 0.0 0.0 0.0 0.0 0.0 0.0 0.0 0.0 0.0 0.0 0.0 0.0 0.0 0.0
0.0 0.0 0.0 0.0 0.0 0.0 0.0 0.0 0.0 0.0 0.0 0.0 0.0 0.0 0.0 0.0 0.0 0.0 0.0 0.0 0.0 0.0
0.0 0.0 0.0 0.0 0.0 0.0 0.0 0.0 0.0 0.0 0.0 0.0 0.0 0.0 0.0 0.0 0.0 0.0 0.0 0.0 0.0 0.0
0.0 0.0 0.0 0.0 0.0 0.0 0.0 0.0 0.0 0.0 0.0 0.0 0.0 0.0 0.0 0.0 0.0 0.0 0.0 0.0 0.0 0.0
0.0 0.0 0.0 0.0 0.0 0.0 0.0 0.0 0.0 0.0 0.0 0.0 0.0 0.0 0.0 0.0 0.0 0.0 0.0 0.1 0.0 0.1
0.0 0.0 0.0 0.1 0.1 0.0 0.0 0.0 0.0 0.0 0.0 0.1 0.1 0.0 0.0 0.1 0.0 0.0 0.1 0.1 0.1 0.2
0.2 0.3 0.2 0.2 0.2 0.0 0.0 0.0 0.0 0.1 0.1 0.3 0.3 0.2 0.1 0.2 0.0 0.0 0.1 0.2 0.3 0.5
0.9 0.8 0.8 0.8 0.9 0.8 0.4 0.2 0.1 0.1 0.2 0.4 0.5 0.9 0.7 0.4 0.3 0.4 0.2 0.3 0.5 1.1
2.4 2.4 2.5 2.3 2.0 1.2 0.8 1.2 1.3 0.9 0.9 0.9 1.6 1.8 1.6 1.1 1.0 1.1 1.4 1.1 0.8 1.2
3.4 3.1 3.9 2.2 1.6 1.6 2.4 1.5 1.6 3.3 4.4 3.2 4.1 3.3 3.8 3.2 3.3 3.1 3.5 3.5 2.9 2.0
3.4 4.3 3.4 2.7 3.6 4.6 3.6 3.7 4.5 3.6 5.8 4.6 7.3 6.7 8.0 8.2 8.0 6.9 7.3 9.0 6.7 6.1
2.0 2.4 1.6 1.9 2.5 4.7 4.8 7.2 7.7 4.5 3.1 4.5 6.9 6.1 4.9 5.3 6.6 6.4 6.3 7.3 8.4 7.4
4.6 3.2 2.2 2.5 3.3 6.5 4.3 5.9 6.3 6.8 10.3 7.7 9.8 5.0 3.1 2.5 3.8 5.2 9.2 6.3 5.2 6.1
8.4 7.0 8.6 13.1 7.4 11.6 11.8 11.0 9.3 9.1 7.0 8.0 7.2 12.2 12.4 8.4 9.2 9.5 7.2 6.7 8.6 10.6

GFSNIL_prec_snow_150.txt.gz
Snowfall_Accumulation
0.0 0.0 0.0 0.0 0.0 0.0 0.0 0.0 0.0 0.0 0.0 0.0 0.0 0.0 0.0 0.0 0.0 0.0 0.0 0.0 0.0 0.0
0.0 0.0 0.0 0.0 0.0 0.0 0.0 0.0 0.0 0.0 0.0 0.0 0.0 0.0 0.0 0.0 0.0 0.0 0.0 0.0 0.0 0.0
0.0 0.0 0.0 0.0 0.0 0.0 0.0 0.0 0.0 0.0 0.0 0.0 0.0 0.0 0.0 0.0 0.0 0.0 0.0 0.0 0.0 0.0
0.0 0.0 0.0 0.0 0.0 0.0 0.0 0.0 0.0 0.0 0.0 0.0 0.0 0.0 0.0 0.0 0.0 0.0 0.0 0.0 0.0 0.0
0.0 0.0 0.0 0.0 0.0 0.0 0.0 0.0 0.0 0.0 0.0 0.0 0.0 0.0 0.0 0.0 0.0 0.0 0.0 0.1 0.0 0.1
0.0 0.0 0.0 0.1 0.1 0.0 0.0 0.0 0.0 0.0 0.0 0.1 0.1 0.0 0.0 0.1 0.0 0.0 0.1 0.1 0.1 0.2
0.2 0.3 0.2 0.2 0.2 0.0 0.0 0.0 0.0 0.1 0.1 0.3 0.3 0.2 0.1 0.2 0.0 0.0 0.1 0.2 0.3 0.5
0.9 0.8 0.8 0.8 0.9 0.8 0.4 0.2 0.1 0.1 0.2 0.4 0.5 0.9 0.7 0.4 0.3 0.4 0.2 0.3 0.5 1.1
2.4 2.4 2.5 2.3 2.0 1.2 0.8 1.2 1.3 0.9 0.9 0.9 1.6 1.8 1.6 1.1 1.0 1.1 1.4 1.1 0.8 1.2
3.4 3.1 3.9 2.2 1.6 1.6 2.4 1.5 1.6 3.3 4.4 3.2 4.1 3.3 3.8 3.2 3.3 3.1 3.5 3.5 2.9 2.0
3.4 4.3 3.4 2.7 3.6 4.6 3.6 3.7 4.5 3.6 5.8 4.6 7.3 6.7 8.0 8.2 8.0 6.9 7.3 9.0 6.7 6.1
2.0 2.4 1.6 1.9 2.5 4.7 4.8 7.2 7.7 4.5 3.1 4.5 6.9 6.1 4.9 5.3 6.6 6.4 6.3 7.3 8.4 7.4
4.6 3.2 2.2 2.5 3.3 6.5 4.3 5.9 6.3 6.8 10.3 7.7 9.8 5.0 3.1 2.5 3.8 5.2 9.2 6.3 5.2 6.1
8.4 7.0 8.6 13.1 7.4 11.6 11.8 11.0 9.3 9.1 7.0 8.0 7.2 12.3 12.4 8.4 9.2 9.5 7.2 6.7 8.6 10.6

GFSNIL_prec_snow_153.txt.gz
Snowfall_Accumulation
0.0 0.0 0.0 0.0 0.0 0.0 0.0 0.0 0.0 0.0 0.0 0.0 0.0 0.0 0.0 0.0 0.0 0.0 0.0 0.0 0.0 0.0
0.0 0.0 0.0 0.0 0.0 0.0 0.0 0.0 0.0 0.0 0.0 0.0 0.0 0.0 0.0 0.0 0.0 0.0 0.0 0.0 0.0 0.0
0.0 0.0 0.0 0.0 0.0 0.0 0.0 0.0 0.0 0.0 0.0 0.0 0.0 0.0 0.0 0.0 0.0 0.0 0.0 0.0 0.0 0.0
0.0 0.0 0.0 0.0 0.0 0.0 0.0 0.0 0.0 0.0 0.0 0.0 0.0 0.0 0.0 0.0 0.0 0.0 0.0 0.0 0.0 0.0
0.0 0.0 0.0 0.0 0.0 0.0 0.0 0.0 0.0 0.0 0.0 0.0 0.0 0.0 0.0 0.0 0.0 0.0 0.0 0.1 0.0 0.1
0.0 0.0 0.0 0.1 0.1 0.0 0.0 0.0 0.0 0.0 0.0 0.1 0.1 0.0 0.0 0.1 0.0 0.0 0.1 0.1 0.1 0.2
0.2 0.3 0.2 0.2 0.2 0.0 0.0 0.0 0.0 0.1 0.1 0.3 0.3 0.2 0.1 0.2 0.0 0.0 0.1 0.2 0.3 0.5
0.9 0.8 0.8 0.8 0.9 0.8 0.4 0.2 0.1 0.1 0.2 0.4 0.5 0.9 0.7 0.4 0.3 0.4 0.2 0.3 0.5 1.1
2.4 2.4 2.5 2.3 2.0 1.2 0.8 1.2 1.3 0.9 0.9 0.9 1.6 1.8 1.6 1.1 1.0 1.1 1.4 1.1 0.8 1.2
3.4 3.1 3.9 2.2 1.6 1.6 2.4 1.5 1.6 3.3 4.4 3.2 4.1 3.3 3.8 3.2 3.3 3.1 3.5 3.5 2.9 2.0
3.4 4.3 3.4 2.7 3.6 4.6 3.6 3.7 4.5 3.6 5.8 4.6 7.3 6.7 8.0 8.2 8.0 6.9 7.3 9.0 6.7 6.1
2.0 2.4 1.6 1.9 2.5 4.7 4.8 7.2 7.7 4.5 3.1 4.5 6.9 6.1 4.9 5.3 6.6 6.4 6.3 7.3 8.4 7.4
4.7 3.2 2.2 2.5 3.3 6.5 4.3 5.9 6.3 6.8 10.3 7.7 9.9 5.0 3.1 2.5 3.8 5.2 9.2 6.3 5.2 6.1
8.4 7.0 8.6 13.1 7.4 11.6 11.8 11.0 9.3 9.1 7.0 8.0 7.2 12.3 12.4 8.4 9.2 9.5 7.2 6.7 8.6 10.6

GFSNIL_prec_snow_156.txt.gz
Snowfall_Accumulation
0.0 0.0 0.0 0.0 0.0 0.0 0.0 0.0 0.0 0.0 0.0 0.0 0.0 0.0 0.0 0.0 0.0 0.0 0.0 0.0 0.0 0.0
0.0 0.0 0.0 0.0 0.0 0.0 0.0 0.0 0.0 0.0 0.0 0.0 0.0 0.0 0.0 0.0 0.0 0.0 0.0 0.0 0.0 0.0
0.0 0.0 0.0 0.0 0.0 0.0 0.0 0.0 0.0 0.0 0.0 0.0 0.0 0.0 0.0 0.0 0.0 0.0 0.0 0.0 0.0 0.0
0.0 0.0 0.0 0.0 0.0 0.0 0.0 0.0 0.0 0.0 0.0 0.0 0.0 0.0 0.0 0.0 0.0 0.0 0.0 0.0 0.0 0.0
0.0 0.0 0.0 0.0 0.0 0.0 0.0 0.0 0.0 0.0 0.0 0.0 0.0 0.0 0.0 0.0 0.0 0.0 0.0 0.1 0.0 0.1
0.0 0.0 0.0 0.1 0.1 0.0 0.0 0.0 0.0 0.0 0.0 0.1 0.1 0.0 0.0 0.1 0.0 0.0 0.1 0.1 0.1 0.2
0.2 0.3 0.2 0.2 0.2 0.0 0.0 0.0 0.0 0.1 0.1 0.3 0.3 0.2 0.1 0.2 0.0 0.0 0.1 0.2 0.3 0.5
0.9 0.8 0.8 0.8 0.9 0.8 0.4 0.2 0.1 0.1 0.2 0.4 0.5 0.9 0.7 0.4 0.3 0.4 0.2 0.3 0.5 1.1
2.4 2.4 2.5 2.3 2.0 1.2 0.8 1.2 1.3 0.9 0.9 0.9 1.6 1.8 1.6 1.1 1.0 1.1 1.4 1.1 0.8 1.2
3.6 3.1 3.9 2.2 1.6 1.6 2.4 1.5 1.6 3.3 4.4 3.2 4.1 3.3 3.8 3.2 3.3 3.1 3.5 3.5 2.9 2.0
3.7 4.4 3.4 2.7 3.6 4.6 3.6 3.7 4.5 3.6 5.9 4.6 7.3 6.7 8.0 8.2 8.0 6.9 7.3 9.1 6.7 6.1
2.4 2.5 1.6 1.9 2.5 4.7 4.8 7.3 7.7 4.5 3.1 4.5 6.9 6.1 4.9 5.3 6.6 6.4 6.3 7.4 8.4 7.4
5.0 3.3 2.3 2.5 3.3 6.5 4.3 5.9 6.3 6.9 10.3 7.7 9.9 5.0 3.1 2.5 3.9 5.2 9.2 6.3 5.2 6.1
8.7 7.0 8.6 13.1 7.4 11.6 11.8 11.0 9.3 9.2 7.0 8.0 7.2 12.3 12.4 8.4 9.2 9.5 7.2 6.7 8.6 10.6

GFSNIL_prec_snow_159.txt.gz
Snowfall_Accumulation
0.0 0.0 0.0 0.0 0.0 0.0 0.0 0.0 0.0 0.0 0.0 0.0 0.0 0.0 0.0 0.0 0.0 0.0 0.0 0.0 0.0 0.0
0.0 0.0 0.0 0.0 0.0 0.0 0.0 0.0 0.0 0.0 0.0 0.0 0.0 0.0 0.0 0.0 0.0 0.0 0.0 0.0 0.0 0.0
0.0 0.0 0.0 0.0 0.0 0.0 0.0 0.0 0.0 0.0 0.0 0.0 0.0 0.0 0.0 0.0 0.0 0.0 0.0 0.0 0.0 0.0
0.0 0.0 0.0 0.0 0.0 0.0 0.0 0.0 0.0 0.0 0.0 0.0 0.0 0.0 0.0 0.0 0.0 0.0 0.0 0.0 0.0 0.0
0.0 0.0 0.0 0.0 0.0 0.0 0.0 0.0 0.0 0.0 0.0 0.0 0.0 0.0 0.0 0.0 0.0 0.0 0.0 0.1 0.0 0.1
0.0 0.0 0.0 0.1 0.1 0.0 0.0 0.0 0.0 0.0 0.0 0.1 0.1 0.0 0.0 0.1 0.0 0.0 0.1 0.1 0.1 0.2
0.2 0.3 0.2 0.2 0.2 0.0 0.0 0.0 0.0 0.1 0.1 0.3 0.3 0.2 0.1 0.2 0.0 0.0 0.1 0.2 0.3 0.5
0.9 0.8 0.8 0.8 0.9 0.8 0.4 0.2 0.1 0.1 0.2 0.4 0.5 0.9 0.7 0.4 0.3 0.4 0.2 0.3 0.5 1.1
2.4 2.4 2.5 2.3 2.0 1.2 0.8 1.2 1.3 0.9 0.9 0.9 1.6 1.8 1.6 1.1 1.0 1.1 1.4 1.1 0.8 1.2
3.6 3.1 3.9 2.2 1.6 1.6 2.4 1.5 1.6 3.3 4.4 3.2 4.1 3.3 3.8 3.2 3.3 3.1 3.5 3.5 2.9 2.0
3.7 4.6 3.5 2.7 3.6 4.6 3.6 3.7 4.5 3.6 5.9 4.6 7.3 6.7 8.0 8.2 8.1 6.9 7.3 9.1 6.7 6.1
2.4 3.0 1.9 1.9 2.5 4.7 4.8 7.3 7.7 4.5 3.1 4.5 6.9 6.1 4.9 5.3 6.6 6.4 6.3 7.4 8.4 7.4
5.4 3.7 2.4 2.5 3.3 6.5 4.4 5.9 6.3 6.9 10.4 7.7 9.9 5.0 3.1 2.5 3.9 5.2 9.2 6.3 5.2 6.1
9.2 7.4 8.7 13.1 7.4 11.6 11.8 11.0 9.3 9.2 7.0 8.0 7.2 12.3 12.4 8.4 9.2 9.5 7.2 6.8 8.6 10.6

GFSNIL_prec_snow_162.txt.gz
Snowfall_Accumulation
0.0 0.0 0.0 0.0 0.0 0.0 0.0 0.0 0.0 0.0 0.0 0.0 0.0 0.0 0.0 0.0 0.0 0.0 0.0 0.0 0.0 0.0
0.0 0.0 0.0 0.0 0.0 0.0 0.0 0.0 0.0 0.0 0.0 0.0 0.0 0.0 0.0 0.0 0.0 0.0 0.0 0.0 0.0 0.0
0.0 0.0 0.0 0.0 0.0 0.0 0.0 0.0 0.0 0.0 0.0 0.0 0.0 0.0 0.0 0.0 0.0 0.0 0.0 0.0 0.0 0.0
0.0 0.0 0.0 0.0 0.0 0.0 0.0 0.0 0.0 0.0 0.0 0.0 0.0 0.0 0.0 0.0 0.0 0.0 0.0 0.0 0.0 0.0
0.0 0.0 0.0 0.0 0.0 0.0 0.0 0.0 0.0 0.0 0.0 0.0 0.0 0.0 0.0 0.0 0.0 0.0 0.0 0.1 0.0 0.1
0.0 0.0 0.0 0.1 0.1 0.0 0.0 0.0 0.0 0.0 0.0 0.1 0.1 0.0 0.0 0.1 0.0 0.0 0.1 0.1 0.1 0.2
0.2 0.3 0.2 0.2 0.2 0.0 0.0 0.0 0.0 0.1 0.1 0.3 0.3 0.2 0.1 0.2 0.0 0.0 0.1 0.2 0.3 0.5
0.9 0.8 0.8 0.8 0.9 0.8 0.4 0.2 0.1 0.1 0.2 0.4 0.5 0.9 0.7 0.4 0.3 0.4 0.2 0.3 0.5 1.1
2.4 2.4 2.5 2.3 2.7 1.2 0.8 1.2 1.3 0.9 0.9 0.9 1.6 1.8 1.6 1.1 1.0 1.1 1.4 1.1 0.8 1.2
3.6 3.8 4.7 2.6 1.6 1.6 2.4 1.5 1.6 3.3 4.4 3.2 4.1 3.3 3.8 3.2 3.3 3.1 3.5 3.5 2.9 2.0
3.7 4.6 3.7 3.1 3.9 4.6 3.6 3.7 4.5 3.6 5.9 4.6 7.3 6.7 8.0 8.2 8.1 6.9 7.3 9.1 6.7 6.1
2.4 3.0 2.3 2.2 2.6 4.8 4.8 7.3 7.7 4.5 3.1 4.5 6.9 6.1 4.9 5.3 6.6 6.4 6.3 7.4 8.4 7.4
5.4 3.8 2.6 2.8 3.4 6.5 4.4 5.9 6.3 6.9 10.4 7.7 9.9 5.0 3.1 2.5 3.9 5.2 9.2 6.3 5.2 6.1
9.2 7.6 8.9 13.3 7.5 11.6 11.8 11.0 9.3 9.2 7.0 8.0 7.2 12.3 12.4 8.4 9.2 9.5 7.2 6.8 8.6 10.6

GFSNIL_prec_snow_165.txt.gz
Snowfall_Accumulation
0.0 0.0 0.0 0.0 0.0 0.0 0.0 0.0 0.0 0.0 0.0 0.0 0.0 0.0 0.0 0.0 0.0 0.0 0.0 0.0 0.0 0.0
0.0 0.0 0.0 0.0 0.0 0.0 0.0 0.0 0.0 0.0 0.0 0.0 0.0 0.0 0.0 0.0 0.0 0.0 0.0 0.0 0.0 0.0
0.0 0.0 0.0 0.0 0.0 0.0 0.0 0.0 0.0 0.0 0.0 0.0 0.0 0.0 0.0 0.0 0.0 0.0 0.0 0.0 0.0 0.0
0.0 0.0 0.0 0.0 0.0 0.0 0.0 0.0 0.0 0.0 0.0 0.0 0.0 0.0 0.0 0.0 0.0 0.0 0.0 0.0 0.0 0.0
0.0 0.0 0.0 0.0 0.0 0.0 0.0 0.0 0.0 0.0 0.0 0.0 0.0 0.0 0.0 0.0 0.0 0.0 0.0 0.1 0.0 0.1
0.0 0.0 0.0 0.1 0.1 0.0 0.0 0.0 0.0 0.0 0.0 0.1 0.1 0.0 0.0 0.1 0.0 0.0 0.1 0.1 0.1 0.2
0.2 0.3 0.2 0.2 0.2 0.0 0.0 0.0 0.0 0.1 0.1 0.3 0.3 0.2 0.1 0.2 0.0 0.0 0.1 0.2 0.3 0.5
0.9 0.8 0.8 0.8 0.9 0.8 0.4 0.2 0.1 0.1 0.2 0.4 0.5 0.9 0.7 0.4 0.3 0.4 0.2 0.3 0.5 1.1
2.4 2.4 2.5 2.3 3.7 1.2 0.8 1.7 1.3 0.9 1.0 1.0 1.6 1.8 1.6 1.1 1.0 1.1 1.4 1.1 0.8 1.2
3.6 3.8 4.7 3.8 2.7 2.1 2.6 1.7 1.8 3.5 4.4 3.2 4.1 3.3 3.8 3.2 3.3 3.1 3.5 3.5 2.9 2.0
3.7 4.6 3.7 3.7 4.5 5.5 4.4 4.4 4.7 3.7 5.9 4.6 7.3 6.7 8.0 8.2 8.1 6.9 7.3 9.1 6.7 6.1
2.4 3.0 2.3 2.2 3.1 5.3 5.2 7.5 7.8 4.5 3.1 4.5 6.9 6.1 4.9 5.3 6.6 6.4 6.3 7.4 8.4 7.4
5.4 3.8 2.6 3.0 3.8 7.0 4.6 6.0 6.3 6.9 10.4 7.7 9.9 5.0 3.1 2.5 3.9 5.2 9.2 6.3 5.2 6.1
9.2 7.6 8.9 13.5 7.8 11.8 11.9 11.0 9.3 9.2 7.0 8.0 7.2 12.3 12.4 8.4 9.2 9.5 7.2 6.8 8.6 10.6

GFSNIL_prec_snow_171.txt.gz
Snowfall_Accumulation
0.0 0.0 0.0 0.0 0.0 0.0 0.0 0.0 0.0 0.0 0.0 0.0 0.0 0.0 0.0 0.0 0.0 0.0 0.0 0.0 0.0 0.0
0.0 0.0 0.0 0.0 0.0 0.0 0.0 0.0 0.0 0.0 0.0 0.0 0.0 0.0 0.0 0.0 0.0 0.0 0.0 0.0 0.0 0.0
0.0 0.0 0.0 0.0 0.0 0.0 0.0 0.0 0.0 0.0 0.0 0.0 0.0 0.0 0.0 0.0 0.0 0.0 0.0 0.0 0.0 0.0
0.0 0.0 0.0 0.0 0.0 0.0 0.0 0.0 0.0 0.0 0.0 0.0 0.0 0.0 0.0 0.0 0.0 0.0 0.0 0.0 0.0 0.0
0.0 0.0 0.0 0.0 0.0 0.0 0.0 0.0 0.0 0.0 0.0 0.0 0.0 0.0 0.0 0.0 0.0 0.0 0.0 0.1 0.0 0.1
0.0 0.0 0.0 0.1 0.1 0.0 0.0 0.0 0.0 0.0 0.0 0.1 0.1 0.0 0.0 0.1 0.0 0.0 0.1 0.1 0.1 0.2
0.2 0.3 0.2 0.2 0.2 0.0 0.0 0.0 0.0 0.1 0.1 0.3 0.3 0.2 0.3 0.2 0.0 0.0 0.1 0.2 0.3 0.5
0.9 0.8 0.8 0.8 0.9 0.8 0.4 1.3 1.0 0.8 2.0 2.2 2.3 2.3 1.5 0.5 0.3 0.4 0.2 0.3 0.5 1.1
2.4 2.4 2.5 2.3 3.7 1.2 2.2 2.8 3.6 2.9 2.8 3.1 2.9 2.6 2.1 1.3 1.0 1.1 1.4 1.1 0.8 1.2
3.6 3.8 4.7 3.8 2.7 3.6 3.9 3.0 2.8 4.3 6.4 4.9 5.1 4.3 4.6 3.5 3.4 3.2 3.5 3.5 2.9 2.0
3.7 4.6 3.7 3.7 4.5 5.9 4.4 5.0 5.6 4.7 7.1 5.6 7.9 7.0 8.4 8.4 8.1 6.9 7.3 9.1 6.7 6.1
2.4 3.0 2.3 2.2 3.1 5.5 5.7 8.4 8.7 5.4 4.1 5.0 7.2 6.3 5.0 5.3 6.6 6.4 6.3 7.4 8.4 7.4
5.4 3.8 2.6 3.0 3.9 7.3 5.0 6.6 7.0 7.9 11.5 8.6 10.4 5.3 3.2 2.5 3.9 5.2 9.2 6.3 5.2 6.1
9.2 7.6 8.9 13.5 7.9 12.1 12.4 11.4 9.7 9.6 7.6 8.2 7.3 12.5 12.5 8.5 9.2 9.5 7.2 6.8 8.6 10.6